Year,Month,Day,Hour,Minute,Value (Times are PST for temperature in C)
2015,08,18,00,00,18.20
2015,08,18,00,01,18.20
2015,08,18,00,02,18.10
2015,08,18,00,03,18.10
2015,08,18,00,04,18.10
2015,08,18,00,05,18.10
2015,08,18,00,06,18.10
2015,08,18,00,07,18.10
2015,08,18,00,08,18.00
2015,08,18,00,09,18.00
2015,08,18,00,10,17.90
2015,08,18,00,11,17.90
2015,08,18,00,12,17.90
2015,08,18,00,13,17.90
2015,08,18,00,14,17.90
2015,08,18,00,15,17.80
2015,08,18,00,16,17.80
2015,08,18,00,17,17.80
2015,08,18,00,18,17.80
2015,08,18,00,19,17.80
2015,08,18,00,20,17.80
2015,08,18,00,21,17.80
2015,08,18,00,22,17.70
2015,08,18,00,23,17.70
2015,08,18,00,24,17.70
2015,08,18,00,25,17.70
2015,08,18,00,26,17.70
2015,08,18,00,27,17.70
2015,08,18,00,28,17.70
2015,08,18,00,29,17.70
2015,08,18,00,30,17.70
2015,08,18,00,31,17.70
2015,08,18,00,32,17.70
2015,08,18,00,33,17.70
2015,08,18,00,34,17.60
2015,08,18,00,35,17.60
2015,08,18,00,36,17.60
2015,08,18,00,37,17.60
2015,08,18,00,38,17.60
2015,08,18,00,39,17.60
2015,08,18,00,40,17.60
2015,08,18,00,41,17.60
2015,08,18,00,42,17.60
2015,08,18,00,43,17.60
2015,08,18,00,44,17.60
2015,08,18,00,45,17.60
2015,08,18,00,46,17.60
2015,08,18,00,47,17.60
2015,08,18,00,48,17.60
2015,08,18,00,49,17.60
2015,08,18,00,50,17.50
2015,08,18,00,51,17.50
2015,08,18,00,52,17.50
2015,08,18,00,53,17.50
2015,08,18,00,54,17.40
2015,08,18,00,55,17.40
2015,08,18,00,56,17.40
2015,08,18,00,57,17.40
2015,08,18,00,58,17.40
2015,08,18,00,59,17.40
2015,08,18,01,00,17.30
2015,08,18,01,01,17.30
2015,08,18,01,02,17.30
2015,08,18,01,03,17.30
2015,08,18,01,04,17.30
2015,08,18,01,05,17.30
2015,08,18,01,06,17.30
2015,08,18,01,07,17.20
2015,08,18,01,08,17.20
2015,08,18,01,09,17.20
2015,08,18,01,10,17.20
2015,08,18,01,11,17.20
2015,08,18,01,12,17.20
2015,08,18,01,13,17.20
2015,08,18,01,14,17.20
2015,08,18,01,15,17.20
2015,08,18,01,16,17.20
2015,08,18,01,17,17.20
2015,08,18,01,18,17.10
2015,08,18,01,19,17.10
2015,08,18,01,20,17.10
2015,08,18,01,21,17.10
2015,08,18,01,22,17.10
2015,08,18,01,23,17.10
2015,08,18,01,24,17.10
2015,08,18,01,25,17.10
2015,08,18,01,26,17.10
2015,08,18,01,27,17.10
2015,08,18,01,28,17.10
2015,08,18,01,29,17.10
2015,08,18,01,30,17.10
2015,08,18,01,31,17.10
2015,08,18,01,32,17.00
2015,08,18,01,33,17.00
2015,08,18,01,34,17.00
2015,08,18,01,35,17.00
2015,08,18,01,36,17.00
2015,08,18,01,37,16.90
2015,08,18,01,38,16.90
2015,08,18,01,39,16.90
2015,08,18,01,40,16.90
2015,08,18,01,41,16.90
2015,08,18,01,42,16.90
2015,08,18,01,43,16.80
2015,08,18,01,44,16.80
2015,08,18,01,45,16.80
2015,08,18,01,46,16.80
2015,08,18,01,47,16.80
2015,08,18,01,48,16.80
2015,08,18,01,49,16.80
2015,08,18,01,50,16.80
2015,08,18,01,51,16.80
2015,08,18,01,52,16.80
2015,08,18,01,53,16.80
2015,08,18,01,54,16.80
2015,08,18,01,55,16.80
2015,08,18,01,56,16.70
2015,08,18,01,57,16.70
2015,08,18,01,58,16.70
2015,08,18,01,59,16.70
2015,08,18,02,00,16.70
2015,08,18,02,01,16.70
2015,08,18,02,02,16.70
2015,08,18,02,03,16.60
2015,08,18,02,04,16.60
2015,08,18,02,05,16.60
2015,08,18,02,06,16.60
2015,08,18,02,07,16.60
2015,08,18,02,08,16.60
2015,08,18,02,09,16.60
2015,08,18,02,10,16.60
2015,08,18,02,11,16.60
2015,08,18,02,12,16.60
2015,08,18,02,13,16.60
2015,08,18,02,14,16.60
2015,08,18,02,15,16.60
2015,08,18,02,16,16.60
2015,08,18,02,17,16.60
2015,08,18,02,18,16.60
2015,08,18,02,19,16.70
2015,08,18,02,20,16.70
2015,08,18,02,21,16.70
2015,08,18,02,22,16.60
2015,08,18,02,23,16.60
2015,08,18,02,24,16.60
2015,08,18,02,25,16.60
2015,08,18,02,26,16.60
2015,08,18,02,27,16.60
2015,08,18,02,28,16.60
2015,08,18,02,29,16.60
2015,08,18,02,30,16.60
2015,08,18,02,31,16.60
2015,08,18,02,32,16.60
2015,08,18,02,33,16.60
2015,08,18,02,34,16.60
2015,08,18,02,35,16.60
2015,08,18,02,36,16.50
2015,08,18,02,37,16.50
2015,08,18,02,38,16.50
2015,08,18,02,39,16.50
2015,08,18,02,40,16.40
2015,08,18,02,41,16.40
2015,08,18,02,42,16.40
2015,08,18,02,43,16.40
2015,08,18,02,44,16.50
2015,08,18,02,45,16.50
2015,08,18,02,46,16.40
2015,08,18,02,47,16.40
2015,08,18,02,48,16.40
2015,08,18,02,49,16.40
2015,08,18,02,50,16.50
2015,08,18,02,51,16.40
2015,08,18,02,52,16.50
2015,08,18,02,53,16.50
2015,08,18,02,54,16.50
2015,08,18,02,55,16.50
2015,08,18,02,56,16.50
2015,08,18,02,57,16.50
2015,08,18,02,58,16.50
2015,08,18,02,59,16.50
2015,08,18,03,00,16.50
2015,08,18,03,01,16.50
2015,08,18,03,02,16.50
2015,08,18,03,03,16.50
2015,08,18,03,04,16.50
2015,08,18,03,05,16.40
2015,08,18,03,06,16.40
2015,08,18,03,07,16.40
2015,08,18,03,08,16.40
2015,08,18,03,09,16.40
2015,08,18,03,10,16.40
2015,08,18,03,11,16.40
2015,08,18,03,12,16.50
2015,08,18,03,13,16.50
2015,08,18,03,14,16.50
2015,08,18,03,15,16.40
2015,08,18,03,16,16.50
2015,08,18,03,17,16.40
2015,08,18,03,18,16.40
2015,08,18,03,19,16.40
2015,08,18,03,20,16.40
2015,08,18,03,21,16.40
2015,08,18,03,22,16.40
2015,08,18,03,23,16.40
2015,08,18,03,24,16.40
2015,08,18,03,25,16.40
2015,08,18,03,26,16.40
2015,08,18,03,27,16.40
2015,08,18,03,28,16.40
2015,08,18,03,29,16.40
2015,08,18,03,30,16.40
2015,08,18,03,31,16.30
2015,08,18,03,32,16.30
2015,08,18,03,33,16.30
2015,08,18,03,34,16.30
2015,08,18,03,35,16.30
2015,08,18,03,36,16.30
2015,08,18,03,37,16.30
2015,08,18,03,38,16.30
2015,08,18,03,39,16.20
2015,08,18,03,40,16.20
2015,08,18,03,41,16.20
2015,08,18,03,42,16.20
2015,08,18,03,43,16.20
2015,08,18,03,44,16.20
2015,08,18,03,45,16.10
2015,08,18,03,46,16.10
2015,08,18,03,47,16.10
2015,08,18,03,48,16.10
2015,08,18,03,49,16.10
2015,08,18,03,50,16.10
2015,08,18,03,51,16.10
2015,08,18,03,52,16.10
2015,08,18,03,53,16.10
2015,08,18,03,54,16.00
2015,08,18,03,55,16.00
2015,08,18,03,56,16.00
2015,08,18,03,57,16.00
2015,08,18,03,58,16.00
2015,08,18,03,59,16.00
2015,08,18,04,00,16.00
2015,08,18,04,01,16.00
2015,08,18,04,02,16.00
2015,08,18,04,03,16.00
2015,08,18,04,04,16.00
2015,08,18,04,05,16.00
2015,08,18,04,06,15.90
2015,08,18,04,07,15.90
2015,08,18,04,08,15.90
2015,08,18,04,09,15.90
2015,08,18,04,10,15.90
2015,08,18,04,11,15.90
2015,08,18,04,12,15.90
2015,08,18,04,13,15.90
2015,08,18,04,14,15.90
2015,08,18,04,15,15.90
2015,08,18,04,16,15.90
2015,08,18,04,17,15.90
2015,08,18,04,18,15.90
2015,08,18,04,19,15.90
2015,08,18,04,20,15.90
2015,08,18,04,21,15.90
2015,08,18,04,22,15.90
2015,08,18,04,23,15.90
2015,08,18,04,24,15.90
2015,08,18,04,25,15.90
2015,08,18,04,26,15.90
2015,08,18,04,27,15.90
2015,08,18,04,28,15.90
2015,08,18,04,29,15.90
2015,08,18,04,30,15.90
2015,08,18,04,31,15.90
2015,08,18,04,32,15.90
2015,08,18,04,33,15.90
2015,08,18,04,34,15.90
2015,08,18,04,35,15.90
2015,08,18,04,36,15.90
2015,08,18,04,37,15.90
2015,08,18,04,38,15.90
2015,08,18,04,39,15.90
2015,08,18,04,40,15.90
2015,08,18,04,41,15.90
2015,08,18,04,42,15.90
2015,08,18,04,43,15.90
2015,08,18,04,44,15.90
2015,08,18,04,45,15.90
2015,08,18,04,46,15.90
2015,08,18,04,47,15.90
2015,08,18,04,48,15.80
2015,08,18,04,49,15.80
2015,08,18,04,50,15.80
2015,08,18,04,51,15.80
2015,08,18,04,52,15.80
2015,08,18,04,53,15.80
2015,08,18,04,54,15.80
2015,08,18,04,55,15.70
2015,08,18,04,56,15.70
2015,08,18,04,57,15.70
2015,08,18,04,58,15.70
2015,08,18,04,59,15.70
2015,08,18,05,00,15.70
2015,08,18,05,01,15.70
2015,08,18,05,02,15.70
2015,08,18,05,03,15.70
2015,08,18,05,04,15.80
2015,08,18,05,05,15.80
2015,08,18,05,06,15.80
2015,08,18,05,07,15.80
2015,08,18,05,08,15.80
2015,08,18,05,09,15.80
2015,08,18,05,10,15.80
2015,08,18,05,11,15.80
2015,08,18,05,12,15.80
2015,08,18,05,13,15.80
2015,08,18,05,14,15.80
2015,08,18,05,15,15.90
2015,08,18,05,16,15.80
2015,08,18,05,17,15.80
2015,08,18,05,18,15.80
2015,08,18,05,19,15.80
2015,08,18,05,20,15.80
2015,08,18,05,21,15.80
2015,08,18,05,22,15.80
2015,08,18,05,23,15.80
2015,08,18,05,24,15.80
2015,08,18,05,25,15.80
2015,08,18,05,26,15.80
2015,08,18,05,27,15.80
2015,08,18,05,28,15.80
2015,08,18,05,29,15.80
2015,08,18,05,30,15.80
2015,08,18,05,31,15.80
2015,08,18,05,32,15.80
2015,08,18,05,33,15.80
2015,08,18,05,34,15.80
2015,08,18,05,35,15.80
2015,08,18,05,36,15.80
2015,08,18,05,37,15.70
2015,08,18,05,38,15.70
2015,08,18,05,39,15.70
2015,08,18,05,40,15.70
2015,08,18,05,41,15.70
2015,08,18,05,42,15.70
2015,08,18,05,43,15.70
2015,08,18,05,44,15.70
2015,08,18,05,45,15.60
2015,08,18,05,46,15.60
2015,08,18,05,47,15.60
2015,08,18,05,48,15.60
2015,08,18,05,49,15.60
2015,08,18,05,50,15.60
2015,08,18,05,51,15.60
2015,08,18,05,52,15.60
2015,08,18,05,53,15.60
2015,08,18,05,54,15.60
2015,08,18,05,55,15.50
2015,08,18,05,56,15.50
2015,08,18,05,57,15.50
2015,08,18,05,58,15.50
2015,08,18,05,59,15.50
2015,08,18,06,00,15.40
2015,08,18,06,01,15.40
2015,08,18,06,02,15.40
2015,08,18,06,03,15.40
2015,08,18,06,04,15.40
2015,08,18,06,05,15.40
2015,08,18,06,06,15.40
2015,08,18,06,07,15.30
2015,08,18,06,08,15.30
2015,08,18,06,09,15.30
2015,08,18,06,10,15.30
2015,08,18,06,11,15.30
2015,08,18,06,12,15.20
2015,08,18,06,13,15.20
2015,08,18,06,14,15.20
2015,08,18,06,15,15.20
2015,08,18,06,16,15.20
2015,08,18,06,17,15.20
2015,08,18,06,18,15.20
2015,08,18,06,19,15.20
2015,08,18,06,20,15.20
2015,08,18,06,21,15.30
2015,08,18,06,22,15.30
2015,08,18,06,23,15.30
2015,08,18,06,24,15.30
2015,08,18,06,25,15.30
2015,08,18,06,26,15.40
2015,08,18,06,27,15.40
2015,08,18,06,28,15.40
2015,08,18,06,29,15.40
2015,08,18,06,30,15.40
2015,08,18,06,31,15.40
2015,08,18,06,32,15.40
2015,08,18,06,33,15.40
2015,08,18,06,34,15.40
2015,08,18,06,35,15.40
2015,08,18,06,36,15.40
2015,08,18,06,37,15.40
2015,08,18,06,38,15.40
2015,08,18,06,39,15.40
2015,08,18,06,40,15.40
2015,08,18,06,41,15.40
2015,08,18,06,42,15.40
2015,08,18,06,43,15.40
2015,08,18,06,44,15.40
2015,08,18,06,45,15.40
2015,08,18,06,46,15.40
2015,08,18,06,47,15.40
2015,08,18,06,48,15.40
2015,08,18,06,49,15.40
2015,08,18,06,50,15.30
2015,08,18,06,51,15.30
2015,08,18,06,52,15.30
2015,08,18,06,53,15.30
2015,08,18,06,54,15.30
2015,08,18,06,55,15.30
2015,08,18,06,56,15.30
2015,08,18,06,57,15.30
2015,08,18,06,58,15.20
2015,08,18,06,59,15.20
2015,08,18,07,00,15.20
2015,08,18,07,01,15.20
2015,08,18,07,02,15.20
2015,08,18,07,03,15.20
2015,08,18,07,04,15.30
2015,08,18,07,05,15.30
2015,08,18,07,06,15.30
2015,08,18,07,07,15.30
2015,08,18,07,08,15.30
2015,08,18,07,09,15.30
2015,08,18,07,10,15.30
2015,08,18,07,11,15.30
2015,08,18,07,12,15.30
2015,08,18,07,13,15.30
2015,08,18,07,14,15.40
2015,08,18,07,15,15.40
2015,08,18,07,16,15.40
2015,08,18,07,17,15.40
2015,08,18,07,18,15.40
2015,08,18,07,19,15.50
2015,08,18,07,20,15.50
2015,08,18,07,21,15.60
2015,08,18,07,22,15.60
2015,08,18,07,23,15.60
2015,08,18,07,24,15.60
2015,08,18,07,25,15.70
2015,08,18,07,26,15.70
2015,08,18,07,27,15.80
2015,08,18,07,28,15.80
2015,08,18,07,29,15.80
2015,08,18,07,30,15.90
2015,08,18,07,31,16.00
2015,08,18,07,32,16.10
2015,08,18,07,33,16.20
2015,08,18,07,34,16.20
2015,08,18,07,35,16.30
2015,08,18,07,36,16.30
2015,08,18,07,37,16.40
2015,08,18,07,38,16.50
2015,08,18,07,39,16.60
2015,08,18,07,40,16.70
2015,08,18,07,41,16.70
2015,08,18,07,42,16.80
2015,08,18,07,43,16.90
2015,08,18,07,44,16.90
2015,08,18,07,45,16.90
2015,08,18,07,46,16.90
2015,08,18,07,47,16.90
2015,08,18,07,48,16.90
2015,08,18,07,49,16.90
2015,08,18,07,50,16.90
2015,08,18,07,51,17.00
2015,08,18,07,52,17.00
2015,08,18,07,53,17.10
2015,08,18,07,54,17.10
2015,08,18,07,55,17.20
2015,08,18,07,56,17.20
2015,08,18,07,57,17.30
2015,08,18,07,58,17.30
2015,08,18,07,59,17.30
2015,08,18,08,00,17.40
2015,08,18,08,01,17.40
2015,08,18,08,02,17.60
2015,08,18,08,03,17.70
2015,08,18,08,04,17.70
2015,08,18,08,05,17.80
2015,08,18,08,06,17.90
2015,08,18,08,07,18.10
2015,08,18,08,08,18.10
2015,08,18,08,09,18.20
2015,08,18,08,10,18.30
2015,08,18,08,11,18.30
2015,08,18,08,12,18.40
2015,08,18,08,13,18.40
2015,08,18,08,14,18.40
2015,08,18,08,15,18.50
2015,08,18,08,16,18.60
2015,08,18,08,17,18.60
2015,08,18,08,18,18.70
2015,08,18,08,19,18.70
2015,08,18,08,20,18.80
2015,08,18,08,21,18.90
2015,08,18,08,22,19.00
2015,08,18,08,23,19.10
2015,08,18,08,24,19.10
2015,08,18,08,25,19.10
2015,08,18,08,26,19.20
2015,08,18,08,27,19.20
2015,08,18,08,28,19.20
2015,08,18,08,29,19.30
2015,08,18,08,30,19.40
2015,08,18,08,31,19.40
2015,08,18,08,32,19.60
2015,08,18,08,33,19.60
2015,08,18,08,34,19.70
2015,08,18,08,35,19.70
2015,08,18,08,36,19.80
2015,08,18,08,37,19.80
2015,08,18,08,38,19.90
2015,08,18,08,39,20.00
2015,08,18,08,40,20.10
2015,08,18,08,41,20.10
2015,08,18,08,42,20.20
2015,08,18,08,43,20.20
2015,08,18,08,44,20.30
2015,08,18,08,45,20.30
2015,08,18,08,46,20.40
2015,08,18,08,47,20.40
2015,08,18,08,48,20.40
2015,08,18,08,49,20.30
2015,08,18,08,50,20.40
2015,08,18,08,51,20.40
2015,08,18,08,52,20.30
2015,08,18,08,53,20.30
2015,08,18,08,54,20.30
2015,08,18,08,55,20.30
2015,08,18,08,56,20.20
2015,08,18,08,57,20.10
2015,08,18,08,58,20.10
2015,08,18,08,59,20.00
2015,08,18,09,00,20.00
2015,08,18,09,01,19.90
2015,08,18,09,02,19.90
2015,08,18,09,03,19.90
2015,08,18,09,04,19.90
2015,08,18,09,05,20.00
2015,08,18,09,06,20.10
2015,08,18,09,07,20.10
2015,08,18,09,08,20.10
2015,08,18,09,09,20.20
2015,08,18,09,10,20.20
2015,08,18,09,11,20.30
2015,08,18,09,12,20.30
2015,08,18,09,13,20.30
2015,08,18,09,14,20.30
2015,08,18,09,15,20.30
2015,08,18,09,16,20.30
2015,08,18,09,17,20.40
2015,08,18,09,18,20.40
2015,08,18,09,19,20.40
2015,08,18,09,20,20.50
2015,08,18,09,21,20.60
2015,08,18,09,22,20.60
2015,08,18,09,23,20.70
2015,08,18,09,24,20.70
2015,08,18,09,25,20.70
2015,08,18,09,26,20.80
2015,08,18,09,27,20.80
2015,08,18,09,28,20.70
2015,08,18,09,29,20.70
2015,08,18,09,30,20.80
2015,08,18,09,31,20.80
2015,08,18,09,32,20.80
2015,08,18,09,33,20.90
2015,08,18,09,34,21.00
2015,08,18,09,35,21.10
2015,08,18,09,36,21.10
2015,08,18,09,37,21.20
2015,08,18,09,38,21.20
2015,08,18,09,39,21.30
2015,08,18,09,40,21.40
2015,08,18,09,41,21.40
2015,08,18,09,42,21.50
2015,08,18,09,43,21.40
2015,08,18,09,44,21.50
2015,08,18,09,45,21.50
2015,08,18,09,46,21.50
2015,08,18,09,47,21.50
2015,08,18,09,48,21.50
2015,08,18,09,49,21.60
2015,08,18,09,50,21.60
2015,08,18,09,51,21.60
2015,08,18,09,52,21.70
2015,08,18,09,53,21.80
2015,08,18,09,54,21.90
2015,08,18,09,55,21.90
2015,08,18,09,56,22.10
2015,08,18,09,57,22.10
2015,08,18,09,58,22.20
2015,08,18,09,59,22.20
2015,08,18,10,00,22.10
2015,08,18,10,01,22.10
2015,08,18,10,02,22.10
2015,08,18,10,03,22.10
2015,08,18,10,04,22.10
2015,08,18,10,05,22.20
2015,08,18,10,06,22.30
2015,08,18,10,07,22.40
2015,08,18,10,08,22.50
2015,08,18,10,09,22.60
2015,08,18,10,10,22.60
2015,08,18,10,11,22.60
2015,08,18,10,12,22.60
2015,08,18,10,13,22.60
2015,08,18,10,14,22.60
2015,08,18,10,15,22.60
2015,08,18,10,16,22.60
2015,08,18,10,17,22.60
2015,08,18,10,18,22.60
2015,08,18,10,19,22.50
2015,08,18,10,20,22.50
2015,08,18,10,21,22.50
2015,08,18,10,22,22.60
2015,08,18,10,23,22.60
2015,08,18,10,24,22.70
2015,08,18,10,25,22.70
2015,08,18,10,26,22.80
2015,08,18,10,27,22.80
2015,08,18,10,28,22.80
2015,08,18,10,29,22.80
2015,08,18,10,30,22.90
2015,08,18,10,31,22.90
2015,08,18,10,32,22.90
2015,08,18,10,33,22.90
2015,08,18,10,34,22.90
2015,08,18,10,35,22.90
2015,08,18,10,36,23.00
2015,08,18,10,37,23.10
2015,08,18,10,38,23.10
2015,08,18,10,39,23.20
2015,08,18,10,40,23.20
2015,08,18,10,41,23.30
2015,08,18,10,42,23.30
2015,08,18,10,43,23.40
2015,08,18,10,44,23.50
2015,08,18,10,45,23.50
2015,08,18,10,46,23.50
2015,08,18,10,47,23.50
2015,08,18,10,48,23.50
2015,08,18,10,49,23.50
2015,08,18,10,50,23.50
2015,08,18,10,51,23.60
2015,08,18,10,52,23.60
2015,08,18,10,53,23.60
2015,08,18,10,54,23.70
2015,08,18,10,55,23.80
2015,08,18,10,56,23.90
2015,08,18,10,57,23.90
2015,08,18,10,58,24.00
2015,08,18,10,59,24.10
2015,08,18,11,00,24.10
2015,08,18,11,01,24.10
2015,08,18,11,02,24.20
2015,08,18,11,03,24.20
2015,08,18,11,04,24.30
2015,08,18,11,05,24.30
2015,08,18,11,06,24.40
2015,08,18,11,07,24.50
2015,08,18,11,08,24.60
2015,08,18,11,09,24.50
2015,08,18,11,10,24.60
2015,08,18,11,11,24.60
2015,08,18,11,12,24.70
2015,08,18,11,13,24.80
2015,08,18,11,14,24.90
2015,08,18,11,15,25.00
2015,08,18,11,16,25.10
2015,08,18,11,17,25.20
2015,08,18,11,18,25.30
2015,08,18,11,19,25.30
2015,08,18,11,20,25.30
2015,08,18,11,21,25.20
2015,08,18,11,22,25.30
2015,08,18,11,23,25.30
2015,08,18,11,24,25.30
2015,08,18,11,25,25.30
2015,08,18,11,26,25.30
2015,08,18,11,27,25.20
2015,08,18,11,28,25.20
2015,08,18,11,29,25.10
2015,08,18,11,30,25.10
2015,08,18,11,31,25.10
2015,08,18,11,32,25.10
2015,08,18,11,33,25.10
2015,08,18,11,34,25.10
2015,08,18,11,35,25.10
2015,08,18,11,36,25.10
2015,08,18,11,37,25.20
2015,08,18,11,38,25.20
2015,08,18,11,39,25.20
2015,08,18,11,40,25.20
2015,08,18,11,41,25.30
2015,08,18,11,42,25.30
2015,08,18,11,43,25.30
2015,08,18,11,44,25.40
2015,08,18,11,45,25.50
2015,08,18,11,46,25.60
2015,08,18,11,47,25.70
2015,08,18,11,48,25.80
2015,08,18,11,49,25.90
2015,08,18,11,50,26.10
2015,08,18,11,51,26.10
2015,08,18,11,52,26.10
2015,08,18,11,53,26.10
2015,08,18,11,54,26.10
2015,08,18,11,55,26.10
2015,08,18,11,56,26.10
2015,08,18,11,57,26.20
2015,08,18,11,58,26.20
2015,08,18,11,59,26.30
2015,08,18,12,00,26.40
2015,08,18,12,01,26.50
2015,08,18,12,02,26.70
2015,08,18,12,03,26.70
2015,08,18,12,04,26.70
2015,08,18,12,05,26.70
2015,08,18,12,06,26.70
2015,08,18,12,07,26.70
2015,08,18,12,08,26.70
2015,08,18,12,09,26.70
2015,08,18,12,10,26.70
2015,08,18,12,11,26.70
2015,08,18,12,12,26.70
2015,08,18,12,13,26.70
2015,08,18,12,14,26.80
2015,08,18,12,15,26.80
2015,08,18,12,16,26.80
2015,08,18,12,17,26.80
2015,08,18,12,18,26.90
2015,08,18,12,19,26.90
2015,08,18,12,20,26.80
2015,08,18,12,21,26.90
2015,08,18,12,22,26.80
2015,08,18,12,23,26.80
2015,08,18,12,24,26.70
2015,08,18,12,25,26.70
2015,08,18,12,26,26.80
2015,08,18,12,27,26.80
2015,08,18,12,28,26.80
2015,08,18,12,29,26.80
2015,08,18,12,30,26.90
2015,08,18,12,31,26.90
2015,08,18,12,32,27.00
2015,08,18,12,33,27.10
2015,08,18,12,34,27.10
2015,08,18,12,35,27.20
2015,08,18,12,36,27.20
2015,08,18,12,37,27.30
2015,08,18,12,38,27.40
2015,08,18,12,39,27.50
2015,08,18,12,40,27.60
2015,08,18,12,41,27.60
2015,08,18,12,42,27.70
2015,08,18,12,43,27.70
2015,08,18,12,44,27.80
2015,08,18,12,45,27.90
2015,08,18,12,46,28.00
2015,08,18,12,47,28.10
2015,08,18,12,48,28.10
2015,08,18,12,49,28.10
2015,08,18,12,51,28.10
2015,08,18,12,52,28.10
2015,08,18,12,53,28.00
2015,08,18,12,54,28.00
2015,08,18,12,55,28.00
2015,08,18,12,56,27.90
2015,08,18,12,57,27.90
2015,08,18,12,58,27.90
2015,08,18,12,59,27.90
2015,08,18,13,00,28.10
2015,08,18,13,01,28.20
2015,08,18,13,02,28.30
2015,08,18,13,03,28.40
2015,08,18,13,04,28.40
2015,08,18,13,05,28.60
2015,08,18,13,06,28.60
2015,08,18,13,07,28.70
2015,08,18,13,08,28.70
2015,08,18,13,09,28.70
2015,08,18,13,10,28.60
2015,08,18,13,11,28.50
2015,08,18,13,12,28.40
2015,08,18,13,13,28.30
2015,08,18,13,14,28.30
2015,08,18,13,15,28.30
2015,08,18,13,16,28.30
2015,08,18,13,17,28.40
2015,08,18,13,18,28.50
2015,08,18,13,19,28.60
2015,08,18,13,20,28.70
2015,08,18,13,21,28.80
2015,08,18,13,22,28.80
2015,08,18,13,23,28.80
2015,08,18,13,24,28.90
2015,08,18,13,25,29.10
2015,08,18,13,26,29.20
2015,08,18,13,27,29.30
2015,08,18,13,28,29.40
2015,08,18,13,29,29.60
2015,08,18,13,30,29.50
2015,08,18,13,31,29.40
2015,08,18,13,32,29.40
2015,08,18,13,33,29.50
2015,08,18,13,34,29.40
2015,08,18,13,35,29.50
2015,08,18,13,36,29.60
2015,08,18,13,37,29.70
2015,08,18,13,38,29.70
2015,08,18,13,39,29.80
2015,08,18,13,40,29.80
2015,08,18,13,41,29.80
2015,08,18,13,42,29.70
2015,08,18,13,43,29.70
2015,08,18,13,44,29.80
2015,08,18,13,45,29.90
2015,08,18,13,46,29.90
2015,08,18,13,47,30.10
2015,08,18,13,48,30.10
2015,08,18,13,49,30.20
2015,08,18,13,50,30.20
2015,08,18,13,51,30.30
2015,08,18,13,52,30.30
2015,08,18,13,53,30.40
2015,08,18,13,54,30.60
2015,08,18,13,55,30.70
2015,08,18,13,56,30.80
2015,08,18,13,57,30.90
2015,08,18,13,58,30.90
2015,08,18,13,59,31.00
2015,08,18,14,00,31.00
2015,08,18,14,01,31.00
2015,08,18,14,02,31.00
2015,08,18,14,03,30.90
2015,08,18,14,04,30.80
2015,08,18,14,06,30.60
2015,08,18,14,07,30.40
2015,08,18,14,08,30.40
2015,08,18,14,09,30.40
2015,08,18,14,10,30.40
2015,08,18,14,11,30.40
2015,08,18,14,12,30.30
2015,08,18,14,13,30.20
2015,08,18,14,14,30.00
2015,08,18,14,15,29.80
2015,08,18,14,16,29.80
2015,08,18,14,17,29.70
2015,08,18,14,18,29.70
2015,08,18,14,19,29.60
2015,08,18,14,20,29.60
2015,08,18,14,21,29.60
2015,08,18,14,22,29.70
2015,08,18,14,23,29.70
2015,08,18,14,24,29.80
2015,08,18,14,25,29.90
2015,08,18,14,26,30.10
2015,08,18,14,27,30.10
2015,08,18,14,28,30.30
2015,08,18,14,29,30.40
2015,08,18,14,30,30.50
2015,08,18,14,31,30.60
2015,08,18,14,32,30.70
2015,08,18,14,33,30.80
2015,08,18,14,34,31.00
2015,08,18,14,35,31.20
2015,08,18,14,36,31.30
2015,08,18,14,37,31.40
2015,08,18,14,38,31.60
2015,08,18,14,39,31.70
2015,08,18,14,40,31.70
2015,08,18,14,41,31.70
2015,08,18,14,42,31.70
2015,08,18,14,43,31.70
2015,08,18,14,44,31.70
2015,08,18,14,45,31.70
2015,08,18,14,46,31.80
2015,08,18,14,47,31.80
2015,08,18,14,48,31.70
2015,08,18,14,49,31.70
2015,08,18,14,50,31.80
2015,08,18,14,51,31.80
2015,08,18,14,52,31.80
2015,08,18,14,53,31.90
2015,08,18,14,54,31.90
2015,08,18,14,55,31.90
2015,08,18,14,56,31.90
2015,08,18,14,57,32.10
2015,08,18,14,58,32.10
2015,08,18,14,59,32.10
2015,08,18,15,00,32.20
2015,08,18,15,01,32.20
2015,08,18,15,02,32.10
2015,08,18,15,03,32.10
2015,08,18,15,04,32.10
2015,08,18,15,05,32.20
2015,08,18,15,06,32.30
2015,08,18,15,07,32.30
2015,08,18,15,08,32.40
2015,08,18,15,09,32.50
2015,08,18,15,10,32.60
2015,08,18,15,11,32.60
2015,08,18,15,12,32.50
2015,08,18,15,13,32.40
2015,08,18,15,14,32.40
2015,08,18,15,15,32.50
2015,08,18,15,16,32.50
2015,08,18,15,17,32.60
2015,08,18,15,18,32.70
2015,08,18,15,19,32.70
2015,08,18,15,20,32.80
2015,08,18,15,21,32.90
2015,08,18,15,22,33.00
2015,08,18,15,23,33.10
2015,08,18,15,24,33.10
2015,08,18,15,25,33.20
2015,08,18,15,26,33.30
2015,08,18,15,27,33.30
2015,08,18,15,28,33.40
2015,08,18,15,29,33.50
2015,08,18,15,30,33.60
2015,08,18,15,31,33.70
2015,08,18,15,32,33.80
2015,08,18,15,33,33.90
2015,08,18,15,34,34.00
2015,08,18,15,35,34.10
2015,08,18,15,36,34.20
2015,08,18,15,37,34.20
2015,08,18,15,38,34.20
2015,08,18,15,39,34.20
2015,08,18,15,40,34.30
2015,08,18,15,41,34.30
2015,08,18,15,42,34.40
2015,08,18,15,43,34.60
2015,08,18,15,44,34.70
2015,08,18,15,45,34.80
2015,08,18,15,46,34.90
2015,08,18,15,47,34.80
2015,08,18,15,48,34.80
2015,08,18,15,49,34.80
2015,08,18,15,50,34.70
2015,08,18,15,51,34.80
2015,08,18,15,52,34.80
2015,08,18,15,53,34.80
2015,08,18,15,54,34.80
2015,08,18,15,55,34.80
2015,08,18,15,56,34.80
2015,08,18,15,57,34.80
2015,08,18,15,58,34.90
2015,08,18,15,59,34.90
2015,08,18,16,00,35.00
2015,08,18,16,01,35.10
2015,08,18,16,02,35.10
2015,08,18,16,03,35.00
2015,08,18,16,04,34.90
2015,08,18,16,05,34.90
2015,08,18,16,06,34.80
2015,08,18,16,07,34.70
2015,08,18,16,08,34.30
2015,08,18,16,09,34.10
2015,08,18,16,10,33.90
2015,08,18,16,11,33.80
2015,08,18,16,12,33.70
2015,08,18,16,13,33.60
2015,08,18,16,14,33.40
2015,08,18,16,15,33.30
2015,08,18,16,16,33.30
2015,08,18,16,17,33.30
2015,08,18,16,18,33.10
2015,08,18,16,19,33.00
2015,08,18,16,20,32.90
2015,08,18,16,21,32.80
2015,08,18,16,22,32.70
2015,08,18,16,23,32.70
2015,08,18,16,24,32.70
2015,08,18,16,25,32.80
2015,08,18,16,26,32.80
2015,08,18,16,27,32.80
2015,08,18,16,28,32.90
2015,08,18,16,29,33.10
2015,08,18,16,30,33.10
2015,08,18,16,31,33.10
2015,08,18,16,32,33.20
2015,08,18,16,33,33.20
2015,08,18,16,34,33.20
2015,08,18,16,35,33.10
2015,08,18,16,36,33.00
2015,08,18,16,37,33.00
2015,08,18,16,38,33.00
2015,08,18,16,39,33.10
2015,08,18,16,40,33.20
2015,08,18,16,41,33.40
2015,08,18,16,42,33.60
2015,08,18,16,43,33.80
2015,08,18,16,44,33.90
2015,08,18,16,45,34.00
2015,08,18,16,46,34.10
2015,08,18,16,47,34.10
2015,08,18,16,48,34.10
2015,08,18,16,49,34.10
2015,08,18,16,50,33.90
2015,08,18,16,51,33.80
2015,08,18,16,52,33.80
2015,08,18,16,53,33.80
2015,08,18,16,54,33.90
2015,08,18,16,55,33.90
2015,08,18,16,56,34.00
2015,08,18,16,57,34.10
2015,08,18,16,58,34.20
2015,08,18,16,59,34.10
2015,08,18,17,00,34.10
2015,08,18,17,01,34.10
2015,08,18,17,02,34.10
2015,08,18,17,03,34.10
2015,08,18,17,04,34.10
2015,08,18,17,05,33.90
2015,08,18,17,06,33.60
2015,08,18,17,07,33.40
2015,08,18,17,08,33.30
2015,08,18,17,09,33.30
2015,08,18,17,10,33.20
2015,08,18,17,11,33.10
2015,08,18,17,12,33.10
2015,08,18,17,13,33.10
2015,08,18,17,14,33.20
2015,08,18,17,15,33.30
2015,08,18,17,16,33.40
2015,08,18,17,17,33.50
2015,08,18,17,18,33.60
2015,08,18,17,19,33.60
2015,08,18,17,20,33.50
2015,08,18,17,22,33.40